Regional Weather Roundup
Issued by NWS Upton, NY

Current Version | Previous Version | Text Only | Print | Product List | Glossary On
Versions: 1 2 3 4 5 6 7 8 9 10 11 12 13 14 15 16 17 18 19 20 21 22 23 24 25 26 27
000
ASUS41 KOKX 251008
RWROKX

REGIONAL WEATHER ROUNDUP
NATIONAL WEATHER SERVICE NEW YORK NY
500 AM EST SAT FEB 25 2017

NOTE: "FAIR" INDICATES FEW OR NO CLOUDS BELOW 12,000 FEET WITH NO
SIGNIFICANT WEATHER AND/OR OBSTRUCTIONS TO VISIBILITY.

NYZ071-072-176-178-NJZ106-104-251100-
NEW YORK CITY METRO AREA

CITY           SKY/WX    TMP DP  RH WIND       PRES   REMARKS
Central Park   CLEAR     53  51  93 SE5       29.81F
Wall St Helipt NOT AVBL
LaGuardia APRT FOG       53  51  93 S3        29.80S VSB 3/4
Kennedy INTL   FOG       50  50 100 SE8       29.81F VSB 1/4
Breezy Point     N/A     45 N/A N/A NE3         N/A
Newark/Liberty PTCLDY    51  49  92 E3        29.79F
Teterboro      CLEAR     54  52  93 SW3       29.78F
$$

NYZ177-179-078>081-251100-
LONG ISLAND NEW YORK

CITY           SKY/WX    TMP DP  RH WIND       PRES   REMARKS
Jones Beach      N/A     45 N/A N/A E1          N/A
Matinecock PT  NOT AVBL
Farmingdale    FOG       50  50 100 S3        29.82F VSB 1/4
MacArthur/ISP  FOG       50  50 100 SE5       29.82F VSB 1/4
Shirley        FOG       50  50 100 SE6       29.83F VSB 1/4
Westhampton    CLEAR     51  49  92 S3        29.85F
Southampton    NOT AVBL
Bridgehampton  NOT AVBL
East Hampton     N/A     51  49  95 CALM      29.84F
Montauk          N/A     48  48 100 CALM      29.86F
$$

NYZ052-065-067-251100-
HUDSON VALLEY

CITY           SKY/WX    TMP DP  RH WIND       PRES   REMARKS
White Plains   FOG       53  52  96 SE6       29.79F VSB 1/4
Newburgh       PTCLDY    61  57  88 SW5       29.77S
Montgomery     MOCLDY    60  55  83 S12       29.74S
Poughkeepsie   PTCLDY    59  54  83 VRB3      29.76S
Albany         CLOUDY    61  54  77 S12G17    29.70F
$$

NJZ001-105-106-008-010-013-015-019>022-104-251100-
NEW JERSEY

CITY           SKY/WX    TMP DP  RH WIND       PRES   REMARKS
Newark/Liberty PTCLDY    51  49  92 E3        29.79F
Teterboro      CLEAR     54  52  93 SW3       29.78F
Caldwell       MOCLDY    59  56  89 VRB5      29.78F
Somerville     CLOUDY    57  54  89 SE5       29.76S
Linden         NOT AVBL
Sussex         CLOUDY    60  55  83 S7        29.75S
Andover          N/A     59  54  83 S7        29.75F
Trenton        CLEAR     56  55  97 S8        29.77S
Millville      CLEAR     54  54 100 CALM      29.78F
Atlantic City  CLEAR     54  52  93 S8        29.79F
Wrightstown    CLEAR     55  54  95 S6        29.76S
Toms River     CLEAR     53  52  96 S6        29.80F
Belmar         FOG       53  53 100 S5        29.80F VSB 3/4
$$

PAZ047>061-062-071-251100-
EASTERN PENNSYLVANIA

CITY           SKY/WX    TMP DP  RH WIND       PRES   REMARKS
Philadelphia   MOCLDY    57  54  89 S5        29.77F
Allentown      CLOUDY    62  55  77 SW8       29.74F
Scranton       MOCLDY    62  57  83 S10       29.69R
$$

CTZ002-004>006-009-010-012-RIZ004-006-007-MAZ004-011-015-251100-
SOUTHERN NEW ENGLAND
 IN CT

CITY           SKY/WX    TMP DP  RH WIND       PRES   REMARKS
Bradley INTL   CLOUDY    56  55  97 S8        29.81S
Hartford       CLOUDY    56  55  97 S7        29.81F
Danbury        CLOUDY    56  54  93 SE7       29.81S
Wtrbury/Oxford CLOUDY    55  52  88 S7        29.83F VSB<1/4
Bridgeport     FOG       48  46  93 E3        29.82F VSB 1/4
Meriden        FOG       55  53  93 S7        29.82F VSB 3/4
New Haven      FOG       50  50 100 SE3       29.82F VSB 1/4
Chester        FOG       54  54 100 CALM      29.84F VSB<1/4
Groton         FOG       49  48  97 CALM      29.85F VSB 1/4
Wilimantic     CLOUDY    58  56  93 S6        29.84F

 IN RI

CITY           SKY/WX    TMP DP  RH WIND       PRES   REMARKS
Providence     FOG       48  46  93 S5        29.87S VSB 1/4
Block Island   NOT AVBL
Westerly       FOG       49  46  90 E3        29.87S VSB 1/4
 IN MA

CITY           SKY/WX    TMP DP  RH WIND       PRES   REMARKS
Boston         MOCLDY    51  51 100 S8        29.86S
Worcester      LGT RAIN  54  53  97 S10       29.83S VSB 1/4
Westfield      CLOUDY    55  55 100 S10       29.79F
Provincetown   MOCLDY    49  48  97 S10       29.89F FOG
Nantucket      CLOUDY    49  47  93 SE13      29.91S
$$

ANZ330-335-338-340-345-350-353-355-251100-
COASTAL MARINE OBSERVATIONS


STATION/POSITION TIME  SKY/WX   TEMP    WIND        PRES    VSBY  WAVE
                                AIR SEA DIR/SP/G                  HT/PER
                 (UTC)          (F)     (DEG/KT/KT) (MB)    (MI)  (FT/S)
NY HARB ENTRANCE 0850            46 44  170/  8/  8 1009.5          3/11
20 S FIRE ISLAND 0950            47 44  150/  8/ 10 1009.4          4/ 8
GREAT SOUTH BAY  NOT AVBL
23 SSW MONTAUK P 0850            47 44              1011.3          3/11
15 E BARNEGAT LI 0930               44                N/A           4/11
HUDSON CANYON    0850               47              1010.5          5/10
KINGS POINT      0942            50 42              1008.8
EXECUTION ROCKS  NOT AVBL
CENTRAL LI SOUND 0915            47      20/  2/  4   N/A           0
EASTERN LI SOUND NOT AVBL
ROBBINS REEF     0942            48     180/  6/  7 1009.0
$$


>>>>>>>>>>>>>>>>>>>>>>>>>>>> KEY <<<<<<<<<<<<<<<<<<<<<<<<<<<
>                                                          <
>     SKY/WX - Sky Condition/Present Weather               <
>     TMP    - Temperature in Fahrenheit                   <
>     DP     - Dew Point in Fahrenheit                     <
>     RH     - Relative Humidity in Percent                <
>     WIND   - Direction (from) and Speed in MPH           <
>     PRES   - Mean Sea Level Pressure (inches of Hg)      <
>     WCI    - Wind Chill Index                            <
>     VSB    - VISIBILITY IN MILES                         <
>     HX     - HEAT INDEX                                  <
>     TC     - TEMPERATURE IN CELSIUS                      <
>     VRB    - VARIABLE WIND DIRECTION                     <
>                                                          <
>>>>>>>>>>>>>>>>>>>>>>>>>>>> KEY <<<<<<<<<<<<<<<<<<<<<<<<<<<




USA.gov is the U.S. government's official web portal to all federal, state and local government web resources and services.